KI5QWQ Weather Reports


time (UTC)temp
C
wind
direction
speed
KPH
gust
KPH
rain 1hr
cm
rain 24hr
cm
rain mn
cm
humidity
%
barometer
mb
20260510102410 -17 154 0.0 3.2 0.00 0.00 0.00
20260510101902 -17 194 1.6 4.8 0.00 0.00 0.00
20260510101400 -17 158 0.0 3.2 0.00 0.00 0.00
20260510100856 -17 186 0.0 3.2 0.00 0.00 0.00
20260510100354 -17 168 1.6 3.2 0.00 0.00 0.00
20260510095850 -17 125 0.0 3.2 0.00 0.00 0.00
20260510095345 -17 230 0.0 3.2 0.00 0.00 0.00
20260510094845 -17 164 0.0 3.2 0.00 0.00 0.00
20260510094340 -17 201 1.6 6.4 0.00 0.00 0.00
20260510093837 -17 164 0.0 3.2 0.00 0.00 0.00
20260510093332 -17 205 0.0 3.2 0.00 0.00 0.00
20260510092829 -17 207 3.2 3.2 0.00 0.00 0.00
20260510092325 -17 336 1.6 4.8 0.00 0.00 0.00
20260510091821 -17 199 1.6 3.2 0.00 0.00 0.00
20260510091318 -17 184 1.6 3.2 0.00 0.00 0.00
20260510090814 -17 212 3.2 4.8 0.00 0.00 0.00
20260510090311 -17 226 3.2 3.2 0.00 0.00 0.00
20260510085807 -17 209 0.0 3.2 0.00 0.00 0.00
20260510085301 -17 205 1.6 3.2 0.00 0.00 0.00
20260510084757 -17 157 3.2 4.8 0.00 0.00 0.00
20260510084254 -17 197 1.6 3.2 0.00 0.00 0.00
20260510083751 -17 205 1.6 6.4 0.00 0.00 0.00
20260510083248 -17 260 0.0 6.4 0.00 0.00 0.00
20260510082743 -17 213 1.6 4.8 0.00 0.00 0.00
20260510082240 -17 185 0.0 3.2 0.00 0.00 0.00
20260510081739 -17 241 0.0 3.2 0.00 0.00 0.00
20260510081236 -17 214 1.6 6.4 0.00 0.00 0.00
20260510080731 -17 173 1.6 8.0 0.00 0.00 0.00
20260510080227 -17 174 0.0 4.8 0.00 0.00 0.00
20260510075723 -17 86 0.0 4.8 0.00 0.00 0.00
20260510075221 -17 150 0.0 3.2 0.00 0.00 0.00
20260510074719 -17 170 1.6 1.6 0.00 0.00 0.00
20260510074215 -17 152 1.6 6.4 0.00 0.00 0.00
20260510073711 -17 76 0.0 3.2 0.00 0.00 0.00
20260510073207 -17 228 0.0 3.2 0.00 0.00 0.00
20260510072703 -17 230 0.0 1.6 0.00 0.00 0.00
20260510072200 -17 150 0.0 4.8 0.00 0.00 0.00
20260510071656 -17 177 3.2 6.4 0.00 0.00 0.00
20260510071153 -17 188 1.6 8.0 0.00 0.00 0.00
20260510070651 -17 185 1.6 3.2 0.00 0.00 0.00
20260510070148 -17 142 1.6 3.2 0.00 0.00 0.00
20260510065643 -17 224 0.0 3.2 0.00 0.00 0.00
20260510065139 -17 126 3.2 4.8 0.00 0.00 0.00
20260510064636 -17 188 1.6 8.0 0.00 0.00 0.00
20260510064133 -17 212 1.6 3.2 0.00 0.00 0.00
20260510063630 -17 176 1.6 6.4 0.00 0.00 0.00
20260510063127 -17 152 1.6 6.4 0.00 0.00 0.00
20260510062623 -17 180 0.0 4.8 0.00 0.00 0.00
20260510062118 -17 152 0.0 6.4 0.00 0.00 0.00
20260510061614 -17 182 3.2 8.0 0.00 0.00 0.00
20260510061112 -17 147 0.0 11.3 0.00 0.00 0.00
20260510060608 -17 199 4.8 11.3 0.00 0.00 0.00
20260510060105 -17 166 4.8 6.4 0.00 0.00 0.00
20260510055600 -17 158 1.6 4.8 0.00 0.00 0.00
20260510055059 -17 132 1.6 3.2 0.00 0.00 0.00
20260510054554 -17 199 0.0 4.8 0.00 0.00 0.00
20260510054050 -17 182 1.6 11.3 0.00 0.00 0.00
20260510053549 -17 129 0.0 1.6 0.00 0.00 0.00
20260510053047 -17 140 0.0 4.8 0.00 0.00 0.00
20260510052543 -17 197 0.0 3.2 0.00 0.00 0.00
20260510052039 -17 175 0.0 1.6 0.00 0.00 0.00
20260510051534 -17 150 0.0 4.8 0.00 0.00 0.00
20260510051031 -17 117 0.0 1.6 0.00 0.00 0.00
20260510050529 -17 142 0.0 3.2 0.00 0.00 0.00
20260510050026 -17 159 0.0 3.2 0.00 0.30 0.30
20260510045523 -17 242 0.0 3.2 0.00 0.30 0.30
20260510045019 -17 104 0.0 0.0 0.00 0.30 0.30
20260510044516 -17 129 0.0 1.6 0.00 0.30 0.30
20260510044013 -17 129 0.0 0.0 0.00 0.30 0.30
20260510043508 -17 129 0.0 0.0 0.00 0.30 0.30
20260510043004 -17 205 0.0 0.0 0.00 0.30 0.30
20260510042458 -17 205 0.0 0.0 0.00 0.30 0.30
20260510041953 -17 205 0.0 0.0 0.00 0.30 0.30
20260510041450 -17 205 0.0 0.0 0.00 0.30 0.30
20260510040948 -17 205 0.0 0.0 0.00 0.30 0.30
20260510040444 -17 217 0.0 0.0 0.00 0.30 0.30
20260510035940 -17 129 0.0 0.0 0.00 0.30 0.30
20260510035437 -17 129 0.0 1.6 0.00 0.30 0.30
20260510034936 -17 217 0.0 1.6 0.00 0.30 0.30
20260510034436 -17 230 0.0 0.0 0.00 0.30 0.30
20260510033932 -17 230 0.0 0.0 0.00 0.30 0.30
20260510033428 -17 230 0.0 0.0 0.00 0.30 0.30
20260510032925 -17 230 0.0 0.0 0.00 0.30 0.30
20260510032422 -17 230 0.0 0.0 0.00 0.30 0.30
20260510031917 -17 230 0.0 0.0 0.00 0.30 0.30
20260510031413 -17 230 0.0 1.6 0.00 0.30 0.30
20260510030907 -17 217 0.0 0.0 0.00 0.30 0.30
20260510030404 -17 212 0.0 0.0 0.00 0.30 0.30
20260510025901 -17 212 0.0 0.0 0.00 0.30 0.30
20260510025359 -17 191 0.0 1.6 0.00 0.30 0.30
20260510024856 -17 217 0.0 0.0 0.00 0.30 0.30
20260510024352 -17 230 0.0 1.6 0.00 0.30 0.30
20260510023848 -17 117 0.0 0.0 0.00 0.30 0.30
20260510023345 -17 117 0.0 1.6 0.00 0.30 0.30
20260510022842 -17 230 0.0 0.0 0.00 0.30 0.30
20260510022341 -17 230 0.0 0.0 0.00 0.30 0.30 1011.7
20260510021840 -17 230 0.0 0.0 0.00 0.30 0.30 1011.7
20260510021339 -17 230 0.0 0.0 0.00 0.30 0.30 1011.7
20260510020834 -17 230 0.0 0.0 0.00 0.30 0.30 1011.7
20260510020329 -17 230 0.0 0.0 0.00 0.30 0.30 1011.7
20260510015825 -17 230 0.0 1.6 0.00 0.30 0.30 1011.7
20260510015321 -17 235 0.0 0.0 0.00 0.30 0.30 1011.7
20260510014816 -17 235 0.0 0.0 0.00 0.30 0.30 1011.7
20260510014314 -17 195 0.0 0.0 0.00 0.30 0.30 1011.7
20260510013810 -17 140 0.0 3.2 0.00 0.30 0.30 1011.7
20260510013305 -17 195 0.0 0.0 0.00 0.30 0.30 1011.7
20260510012801 -17 191 0.0 3.2 0.00 0.30 0.30 1011.7
20260510012255 -17 165 0.0 3.2 0.00 0.30 0.30
20260510011755 -17 139 0.0 3.2 0.00 0.30 0.30
20260510011251 -17 195 0.0 3.2 0.00 0.30 0.30
20260510010748 -17 180 0.0 4.8 0.00 0.30 0.30
20260510010244 -17 205 0.0 4.8 0.00 0.30 0.30
20260510005741 -17 183 0.0 3.2 0.00 0.30 0.30
20260510005237 -17 205 0.0 3.2 0.00 0.30 0.30
20260510004735 -17 122 0.0 3.2 0.00 0.30 0.30
20260510004233 -17 203 0.0 4.8 0.00 0.30 0.30
20260510003730 -17 199 1.6 9.7 0.00 0.30 0.30
20260510003227 -17 166 1.6 6.4 0.00 0.30 0.30
20260510002725 -17 161 0.0 4.8 0.00 0.30 0.30
20260510002223 -17 166 1.6 9.7 0.00 0.30 0.30
20260510001720 -17 132 3.2 6.4 0.00 0.30 0.30
20260510001219 -17 201 0.0 4.8 0.00 0.30 0.30
20260510000714 -17 181 0.0 6.4 0.00 0.30 0.30
20260510000211 -17 162 1.6 4.8 0.00 0.30 0.30
20260509235708 -17 190 0.0 4.8 0.00 0.30 0.30
20260509235204 -17 173 0.0 4.8 0.00 0.30 0.30
20260509234701 -17 169 1.6 6.4 0.00 0.30 0.30
20260509234158 -17 150 3.2 6.4 0.00 0.30 0.30 1010.6
20260509233656 -17 154 0.0 6.4 0.00 0.30 0.30 1010.6
20260509233153 -17 122 3.2 4.8 0.00 0.30 0.30 1010.6
20260509232649 -17 95 1.6 4.8 0.00 0.30 0.30 1010.6
20260509232146 -17 195 0.0 3.2 0.00 0.30 0.30 1010.6
20260509231643 -17 351 0.0 4.8 0.00 0.30 0.30 1010.6
20260509231140 -17 189 0.0 3.2 0.00 0.30 0.30 1010.6
20260509230637 -17 117 0.0 3.2 0.00 0.30 0.30 1010.6
20260509230134 -17 145 1.6 3.2 0.00 0.30 0.30 1010.6
20260509225630 -17 229 0.0 3.2 0.00 0.30 0.30 1010.6
20260509225125 -17 89 0.0 1.6 0.00 0.30 0.30 1010.6
20260509224620 -17 230 0.0 1.6 0.00 0.30 0.30 1010.6
20260509224118 -17 89 1.6 3.2 0.00 0.30 0.30 1010.7
20260509223615 -17 246 0.0 1.6 0.00 0.30 0.30 1010.7
20260509223113 -17 13 0.0 1.6 0.00 0.30 0.30 1010.7
20260509222608 -17 300 1.6 3.2 0.00 0.30 0.30 1010.7
20260509222104 -17 123 1.6 4.8 0.00 0.30 0.30 1010.7
20260509221600 -17 219 0.0 4.8 0.00 0.30 0.30 1010.7
20260509221056 -17 269 0.0 3.2 0.00 0.30 0.30 1010.7
20260509220552 -17 218 0.0 1.6 0.00 0.30 0.30 1010.7
20260509220049 -17 263 0.0 1.6 0.00 0.30 0.30 1010.7
20260509215544 -17 200 1.6 3.2 0.00 0.30 0.30 1010.7
20260509215042 -17 293 0.0 3.2 0.00 0.30 0.30 1010.8
20260509214539 -17 278 1.6 3.2 0.00 0.30 0.30 1010.8
20260509214036 -17 244 1.6 3.2 0.00 0.30 0.30 1010.7
20260509213532 -17 311 1.6 3.2 0.00 0.30 0.30 1010.9
20260509213029 -17 297 1.6 4.8 0.00 0.30 0.30 1011.1
20260509212526 -17 18 3.2 3.2 0.00 0.30 0.30 1011.9
20260509212023 -17 113 3.2 4.8 0.00 0.30 0.30 1011.9
20260509211518 -17 153 3.2 8.0 0.00 0.30 0.30 1011.9
20260509211016 -17 158 1.6 3.2 0.00 0.30 0.30 1011.9
20260509210512 -17 185 3.2 6.4 0.00 0.30 0.30 1011.9
20260509210009 -17 240 0.0 4.8 0.00 0.30 0.30 1011.9
20260509205502 -17 242 0.0 3.2 0.00 0.30 0.30 1011.9
20260509204958 -17 193 3.2 4.8 0.00 0.30 0.30 1011.9
20260509204454 -17 356 8.0 12.9 0.00 0.30 0.30 1011.9
20260509203951 -17 3 1.6 4.8 0.00 0.30 0.30 1011.8
20260509203447 -17 55 0.0 3.2 0.00 0.30 0.30 1011.9
20260509202945 -17 255 0.0 3.2 0.00 0.30 0.30 1011.9
20260509202441 -17 327 3.2 4.8 0.00 0.30 0.30 1012.0
20260509201936 -17 269 0.0 3.2 0.00 0.30 0.30 1012.0
20260509201431 -17 128 0.0 3.2 0.00 0.30 0.30 1012.3
20260509200929 -17 254 1.6 3.2 0.00 0.30 0.30 1012.4
20260509200428 -17 117 1.6 3.2 0.00 0.30 0.30 1012.5
20260509195925 -17 354 3.2 4.8 0.00 0.30 0.30 1012.7
20260509195421 -17 357 1.6 4.8 0.00 0.30 0.30 1012.5
20260509194920 -17 358 1.6 3.2 0.00 0.30 0.30 1012.5
20260509194417 -17 269 0.0 4.8 0.00 0.30 0.30 1012.6
20260509193914 -17 25 3.2 6.4 0.00 0.30 0.30 1012.6
20260509193413 -17 335 0.0 3.2 0.00 0.30 0.30 1012.4
20260509192910 -17 67 0.0 8.0 0.00 0.30 0.30 1012.6
20260509192406 -17 244 1.6 4.8 0.00 0.30 0.30 1012.6
20260509191901 -17 337 4.8 6.4 0.00 0.30 0.30 1012.8
20260509191357 -17 258 0.0 6.4 0.00 0.30 0.30 1012.7
20260509190853 -17 283 0.0 6.4 0.00 0.30 0.30 1012.8
20260509190350 -17 303 1.6 8.0 0.00 0.30 0.30 1012.8
20260509185848 -17 0 3.2 4.8 0.00 0.30 0.30 1012.9
20260509185344 -17 279 3.2 6.4 0.00 0.30 0.30 1013.0
20260509184842 -17 105 1.6 3.2 0.00 0.30 0.30 1013.3
20260509184339 -17 142 0.0 4.8 0.00 0.30 0.30 1013.2
20260509183835 -17 129 0.0 4.8 0.00 0.30 0.30 1013.3
20260509183330 -17 268 1.6 3.2 0.00 0.30 0.30 1013.7
20260509182827 -17 299 0.0 3.2 0.00 0.30 0.30 1013.5
20260509182324 -17 33 0.0 3.2 0.00 0.30 0.30 1013.7
20260509181821 -17 329 0.0 1.6 0.00 0.30 0.30 1013.7
20260509181318 -17 284 0.0 1.6 0.00 0.30 0.30 1014.0
20260509180815 -17 255 0.0 1.6 0.00 0.30 0.30 1014.1
20260509180312 -17 258 1.6 4.8 0.00 0.30 0.30 1014.0
20260509175808 -17 212 0.0 1.6 0.00 0.30 0.30 1014.1
20260509175307 -17 230 0.0 1.6 1.80 0.30 0.30 1014.1
20260509174801 -17 325 0.0 4.8 1.80 0.30 0.30 1014.0
20260509174256 -17 195 0.0 1.6 0.00 0.00 0.00 1013.9
20260509173752 -17 310 0.0 4.8 0.00 0.00 0.00 1014.1
20260509173248 -17 242 0.0 1.6 0.00 0.00 0.00 1014.0
20260509172744 -17 117 0.0 1.6 0.00 0.00 0.00 1014.1
20260509172241 -17 117 0.0 1.6 0.00 0.00 0.00 1014.1
20260509171736 -17 235 0.0 1.6 0.00 0.00 0.00 1014.3
20260509171233 -17 235 0.0 1.6 0.00 0.00 0.00 1014.5
20260509170730 -17 235 0.0 1.6 0.00 0.00 0.00 1014.5
20260509170226 -17 326 0.0 1.6 0.00 0.00 0.00 1014.5
20260509165724 -17 225 0.0 1.6 0.00 0.00 0.00 1014.3
20260509165220 -17 205 0.0 1.6 0.00 0.00 0.00 1014.3
20260509164716 -17 252 1.6 3.2 0.00 0.00 0.00
20260509164212 -17 212 0.0 6.4 0.00 0.00 0.00
20260509163709 -17 205 1.6 8.0 0.00 0.00 0.00
20260509163206 -17 220 3.2 6.4 0.00 0.00 0.00
20260509162703 -17 247 3.2 4.8 0.00 0.00 0.00
20260509162159 -17 173 3.2 9.7 0.00 0.00 0.00
20260509161654 -17 217 0.0 9.7 0.00 0.00 0.00
20260509161150 -17 226 3.2 11.3 0.00 0.00 0.00
20260509160646 -17 251 3.2 6.4 0.00 0.00 0.00
20260509160142 -17 235 3.2 6.4 0.00 0.00 0.00
20260509155638 -17 301 0.0 3.2 0.00 0.00 0.00
20260509155134 -17 206 3.2 4.8 0.00 0.00 0.00
20260509154630 -17 225 1.6 4.8 0.00 0.00 0.00
20260509154127 -17 293 0.0 3.2 0.00 0.00 0.00 1013.0
20260509153625 -17 92 1.6 4.8 0.00 0.00 0.00 1013.0
20260509153121 -17 217 0.0 1.6 0.00 0.00 0.00 1013.0
20260509152617 -17 217 0.0 4.8 0.00 0.00 0.00 1013.0
20260509152115 -17 204 0.0 4.8 0.00 0.00 0.00 1013.0
20260509151611 -17 205 0.0 4.8 0.00 0.00 0.00 1013.0
20260509151109 -17 214 0.0 4.8 0.00 0.00 0.00 1013.0
20260509150606 -17 216 3.2 8.0 0.00 0.00 0.00 1013.0
20260509150104 -17 200 1.6 4.8 0.00 0.00 0.00 1013.0
20260509145559 -17 227 1.6 4.8 0.00 0.00 0.00 1013.0
20260509145055 -17 233 3.2 4.8 0.00 0.00 0.00 1013.0
20260509144552 -17 240 4.8 6.4 0.00 0.00 0.00 1013.0
20260509144049 -17 223 4.8 6.4 0.00 0.00 0.00 1013.2
20260509143546 -17 249 1.6 4.8 0.00 0.00 0.00 1013.1
20260509143038 -17 215 3.2 6.4 0.00 0.00 0.00 1013.1
20260509142533 -17 226 0.0 6.4 0.00 0.00 0.00 1013.0
20260509142029 -17 234 1.6 8.0 0.00 0.00 0.00 1013.0
20260509141526 -17 267 4.8 6.4 0.00 0.00 0.00 1013.0
20260509141023 -17 248 3.2 4.8 0.00 0.00 0.00 1012.8
20260509140519 -17 220 1.6 4.8 0.00 0.00 0.00 1012.8
20260509140018 -17 222 3.2 3.2 0.00 0.00 0.00 1013.1
20260509135514 -17 234 1.6 4.8 0.00 0.00 0.00 1013.1
20260509135012 -17 214 0.0 6.4 0.00 0.00 0.00 1013.1
20260509134509 -17 195 0.0 6.4 0.00 0.00 0.00 1013.1
20260509134007 -17 326 1.6 4.8 0.00 0.00 0.00 1013.1
20260509133503 -17 218 3.2 4.8 0.00 0.00 0.00 1012.7
20260509133001 -17 155 6.4 6.4 0.00 0.00 0.00 1013.1
20260509132459 -17 199 3.2 6.4 0.00 0.00 0.00 1013.1
20260509131956 -17 218 0.0 4.8 0.00 0.00 0.00 1013.1
20260509131453 -17 283 3.2 4.8 0.00 0.00 0.00 1012.9
20260509130949 -17 136 0.0 6.4 0.00 0.00 0.00 1012.9
20260509130445 -17 205 0.0 4.8 0.00 0.00 0.00 1012.9
20260509125942 -17 180 0.0 3.2 0.00 0.00 0.00 1012.9
20260509125439 -17 196 0.0 3.2 0.00 0.00 0.00 1012.9
20260509124935 -17 196 1.6 4.8 0.00 0.00 0.00 1012.9
20260509124432 -17 202 0.0 3.2 0.00 0.00 0.00 1013.2
20260509123929 -17 246 0.0 1.6 0.00 0.00 0.00 1013.2
20260509123427 -17 228 1.6 4.8 0.00 0.00 0.00 1013.1
20260509122922 -17 165 0.0 3.2 0.00 0.00 0.00 1013.5
20260509122419 -17 225 0.0 3.2 0.00 0.00 0.00 1013.6
20260509121916 -17 229 0.0 1.6 0.00 0.00 0.00
20260509121413 -17 177 1.6 1.6 0.00 0.00 0.00
20260509120911 -17 333 0.0 3.2 0.00 0.00 0.00
20260509120409 -17 199 0.0 3.2 0.00 0.00 0.00
20260509115907 -17 185 1.6 3.2 0.00 0.00 0.00
20260509115404 -17 200 0.0 1.6 0.00 0.00 0.00
20260509114901 -17 150 0.0 3.2 0.00 0.00 0.00
20260509114400 -17 154 0.0 3.2 0.00 0.00 0.00
20260509113859 -17 31 0.0 0.0 0.00 0.00 0.00
20260509113355 -17 230 0.0 1.6 0.00 0.00 0.00
20260509112852 -17 154 0.0 0.0 0.00 0.00 0.00
20260509112349 -17 117 0.0 1.6 0.00 0.00 0.00
20260509111846 -17 62 0.0 1.6 0.00 0.00 0.00
20260509111343 -17 230 0.0 3.2 0.00 0.00 0.00
20260509110842 -17 213 3.2 3.2 0.00 0.00 0.00
20260509110337 -17 149 0.0 3.2 0.00 0.00 0.00
20260509105836 -17 186 0.0 3.2 0.00 0.00 0.00
20260509105333 -17 205 0.0 1.6 0.00 0.00 0.00
20260509104829 -17 295 0.0 1.6 0.00 0.00 0.00
20260509104326 -17 326 0.0 1.6 0.00 0.00 0.00
20260509103824 -17 139 1.6 3.2 0.00 0.00 0.00
20260509103321 -17 290 0.0 1.6 0.00 0.00 0.00
20260509102820 -17 55 0.0 3.2 0.00 0.00 0.00